Theta_e
311 310 310 310 310 310 311 311 311 312 312 312 312 312 313 313 313 313 313 313 313 312 312 314 315 315 316 318 317 317 309 311 315 315 315 316 314 316 316 315 315 315 316 315 315
310 310 310 310 311 311 312 312 312 312 312 313 313 313 314 314 314 314 314 313 313 312 312 313 315 315 317 319 318 313 307 310 313 314 315 316 315 315 316 315 314 314 315 315 315
309 309 310 311 311 312 312 312 313 314 315 316 317 318 319 319 318 315 312 312 312 311 312 315 316 316 316 318 318 314 311 312 316 316 316 315 315 315 314 313 315 314 314 314 315
309 309 310 311 312 312 312 313 315 317 319 320 320 319 319 319 317 314 312 312 312 312 313 315 316 317 314 315 317 316 316 315 317 316 316 315 316 315 314 315 315 314 313 315 315
309 310 311 312 312 312 313 316 318 319 319 318 317 317 316 316 319 318 313 313 312 312 313 313 315 316 314 314 314 315 315 316 317 316 314 314 314 313 314 315 314 313 314 314 314
309 311 312 312 311 313 316 319 319 318 318 318 318 318 316 313 317 317 316 314 313 312 313 312 314 315 315 314 313 313 314 314 315 315 313 313 312 313 316 314 313 313 314 313 312
310 311 311 311 313 316 318 319 318 318 318 319 320 319 316 316 316 316 317 316 313 312 312 313 315 315 314 313 314 313 312 309 311 312 311 312 312 311 316 313 312 312 312 311 310
311 311 311 312 315 317 318 318 318 318 319 320 320 319 317 316 315 314 315 315 312 312 312 314 315 315 315 314 312 312 310 310 312 312 312 312 313 312 315 312 310 309 308 309 309
312 312 312 314 317 318 318 318 319 319 320 320 320 317 316 315 314 314 314 314 313 312 313 314 315 314 313 308 308 308 309 310 311 312 312 311 312 312 314 312 308 306 306 306 305
316 315 315 316 317 318 319 319 320 320 320 320 318 316 316 314 313 312 312 312 312 312 312 313 313 308 306 307 311 309 310 310 311 313 311 312 310 309 313 311 307 304 303 303 303
315 316 316 317 318 319 320 321 321 320 320 320 316 316 314 314 313 311 311 312 311 311 309 311 308 308 308 308 308 309 310 311 310 310 312 310 309 309 311 308 304 303 302 302 301
315 315 316 317 319 321 322 322 320 320 319 320 320 318 315 315 314 311 311 312 311 309 309 308 308 308 307 307 309 309 310 309 309 309 310 310 310 309 305 304 304 302 301 300 300
315 316 317 318 320 322 321 321 321 321 318 319 319 320 320 319 316 316 312 311 310 308 308 309 311 309 309 309 310 310 310 311 311 311 309 310 310 311 304 303 303 302 301 300 300
316 317 318 318 321 322 322 322 321 320 316 316 315 315 316 316 315 314 312 312 310 310 308 309 310 312 310 311 310 312 309 310 311 311 312 309 312 309 306 303 301 300 300 299 300
317 318 319 318 321 322 321 321 321 318 321 314 312 312 313 315 311 309 309 310 309 310 309 312 312 310 311 311 310 313 309 309 310 309 309 309 309 307 305 305 302 300 299 299 299
318 318 320 321 322 322 322 321 319 318 321 313 309 309 309 308 308 308 309 310 310 310 309 310 309 309 310 308 309 308 308 308 307 307 310 309 310 310 308 307 302 300 299 299 299
320 319 320 320 322 322 322 320 321 324 317 314 309 307 308 307 307 307 307 307 308 312 312 311 310 309 309 309 308 308 310 313 312 310 314 309 309 309 305 302 303 300 299 299 300
321 320 320 321 320 322 321 319 323 322 318 310 308 308 309 307 307 307 306 308 305 309 308 313 316 309 307 309 310 307 310 312 313 311 311 308 312 311 301 300 302 301 301 300 300
322 322 321 321 322 322 320 324 323 322 318 312 313 310 310 309 309 308 306 307 307 306 314 312 314 308 307 308 309 309 311 309 310 296 306 311 309 304 300 299 299 300 300 300 300
322 321 322 321 323 322 321 324 320 319 317 314 314 314 312 314 313 308 307 309 312 306 310 312 315 310 309 309 308 309 309 312 308 310 311 310 309 310 302 300 298 298 299 300 301
322 320 320 322 322 319 323 323 319 317 316 316 314 316 315 315 314 310 313 312 310 308 309 310 312 311 310 310 310 310 311 310 310 307 308 305 308 304 304 301 299 299 300 301 301
318 319 318 321 317 318 322 318 317 316 314 315 314 315 315 313 315 313 314 312 310 310 311 310 310 307 310 307 305 308 309 309 312 309 305 307 310 303 302 302 301 300 302 303 302
315 313 313 316 321 316 314 315 315 312 314 315 316 314 313 313 316 312 311 310 309 309 311 310 309 304 310 308 307 308 307 307 305 302 301 308 308 302 301 301 302 302 302 302 302
314 312 312 311 312 317 316 315 315 313 313 314 314 312 313 314 313 313 310 308 309 310 310 311 309 312 315 309 307 306 306 304 305 307 308 309 308 302 302 301 301 302 302 303 301
313 309 309 312 312 313 314 315 316 314 312 313 312 314 315 315 314 313 309 308 307 308 307 309 312 306 306 304 305 305 304 302 304 305 308 307 304 303 301 299 301 301 300 299 299
305 306 306 307 311 312 313 313 315 315 312 313 314 312 313 315 312 310 308 308 308 305 306 302 305 304 304 303 305 306 305 305 305 304 302 302 302 300 299 299 297 297 296 296 297
303 302 305 305 307 312 311 312 313 313 308 308 311 310 311 311 308 304 307 307 306 304 303 303 301 300 309 297 298 300 297 301 302 301 302 302 301 292 295 294 295 296 295 295 295
Wind_Speed
6 5 5 4 4 4 4 4 5 5 6 7 8 8 9 10 11 12 13 6 4 5 4 4 2 1 0 2 2 2 4 1 2 2 2 6 6 2 6 4 6 6 5 11 13
8 7 7 6 5 5 6 6 6 6 7 8 9 9 11 11 13 12 6 5 6 5 5 4 3 2 1 1 1 4 4 7 4 3 2 5 3 8 5 13 5 12 10 10 11
10 9 8 7 7 7 7 7 7 7 7 8 9 9 10 11 12 1 1 3 5 8 8 7 3 2 1 1 2 3 4 5 4 5 2 3 5 1 2 5 10 15 14 9 6
12 10 10 9 9 9 8 8 8 8 8 9 10 10 10 8 3 2 4 4 5 8 7 5 3 3 1 2 2 0 5 5 2 5 3 3 5 7 7 7 13 9 8 9 9
13 12 12 11 11 10 9 9 9 10 10 10 10 10 9 7 8 8 6 7 8 9 7 6 7 5 3 3 1 2 4 6 10 13 12 8 10 7 21 14 7 3 6 6 6
15 14 14 13 12 11 11 11 11 11 10 10 10 10 9 7 8 9 9 9 10 11 11 7 5 6 3 2 2 2 4 10 12 19 11 5 2 1 3 2 4 5 7 8 5
17 16 16 14 13 12 13 12 11 10 11 10 10 10 12 14 10 9 9 10 10 10 10 8 7 5 4 0 1 2 5 7 10 6 4 5 1 6 5 8 5 3 3 3 7
20 18 17 15 15 14 13 12 11 11 11 11 10 9 8 10 10 12 11 9 10 9 8 7 8 4 2 1 4 3 3 4 3 2 1 5 8 6 5 7 6 4 3 3 4
22 20 18 16 15 14 13 12 11 12 12 11 10 7 6 7 9 11 9 8 9 9 8 6 5 2 3 5 4 5 3 4 8 1 2 3 5 8 10 6 4 6 5 6 8
23 21 19 16 15 14 12 11 11 12 12 11 12 4 11 5 6 7 8 8 5 8 6 5 3 3 3 4 5 5 4 4 5 1 3 2 7 11 22 6 9 11 10 11 12
23 21 19 16 15 14 11 9 9 6 13 9 4 5 2 8 8 8 10 11 9 6 5 3 4 7 13 10 3 3 4 5 3 4 1 6 6 12 11 3 13 13 14 15 16
23 21 19 17 16 15 12 7 7 3 8 14 21 19 14 9 7 12 14 10 7 5 6 4 6 12 4 5 6 2 2 6 5 5 5 7 9 5 9 6 11 15 15 16 17
24 22 20 19 17 17 15 13 9 6 4 8 17 16 18 19 10 14 17 9 5 6 8 8 7 6 7 5 6 5 6 4 7 4 2 3 6 2 6 15 17 14 15 15 17
24 24 22 18 16 18 17 12 8 3 2 6 6 6 10 9 5 11 20 7 3 10 6 6 5 5 4 5 7 5 8 8 5 3 4 2 4 5 5 5 7 13 14 15 16
26 26 23 23 11 18 12 12 9 4 5 3 4 6 10 9 10 4 13 5 6 7 7 7 4 4 5 7 7 7 4 6 3 4 3 4 2 6 7 4 6 10 13 15 15
30 28 25 23 24 16 13 15 11 3 9 4 6 6 5 4 4 6 5 4 3 3 1 5 2 5 7 2 6 5 4 5 4 3 1 8 8 4 5 4 5 13 18 17 15
34 31 32 31 33 22 19 18 2 7 1 6 5 5 4 5 4 5 6 6 6 5 6 1 4 1 2 4 3 4 5 3 4 2 5 4 2 7 3 4 10 18 22 19 17
36 34 36 36 34 29 28 3 10 9 9 3 5 4 8 8 5 6 7 5 6 2 3 6 4 9 6 7 6 6 7 5 7 4 4 1 6 4 2 4 17 27 24 20 18
39 41 42 44 40 35 27 11 11 9 7 10 4 5 5 5 6 4 8 7 9 12 7 6 4 0 2 3 7 5 4 3 5 2 2 4 3 3 4 3 14 22 21 21 20
44 47 47 50 49 47 16 22 9 7 8 5 11 7 10 7 7 8 9 5 5 11 3 5 1 1 2 2 4 4 6 3 2 1 5 5 6 5 6 10 8 11 23 22 19
37 18 28 50 50 27 12 8 6 11 9 7 10 7 7 8 8 6 7 2 5 5 7 5 3 2 3 5 8 2 3 3 3 4 5 2 7 4 10 13 14 20 26 23 22
21 6 19 38 16 6 13 9 8 9 8 3 3 3 8 8 8 8 10 7 13 13 8 4 4 3 7 1 3 2 7 7 6 7 3 2 14 4 7 16 20 22 23 20 19
4 3 27 33 13 5 3 4 8 5 6 7 6 4 3 8 4 6 6 1 13 9 9 7 1 1 5 2 1 4 4 3 4 4 6 5 7 4 6 8 17 17 19 16 17
8 2 6 13 5 12 9 5 6 5 5 6 5 6 4 4 2 5 6 2 2 3 2 9 5 7 12 5 4 4 5 5 5 4 5 15 8 2 4 7 10 14 15 14 17
14 5 6 6 6 4 8 9 9 6 7 16 4 15 11 7 8 8 3 2 2 4 5 5 8 5 3 5 3 4 5 8 8 8 11 10 10 6 10 9 18 16 16 20 20
9 7 6 4 9 11 10 9 14 16 9 8 11 11 12 12 10 9 7 4 5 1 5 1 3 3 3 2 4 5 7 8 11 5 6 9 17 9 9 13 11 13 13 14 13
5 7 8 4 1 12 10 17 17 14 1 3 11 6 14 15 4 0 6 9 7 9 6 6 6 4 11 1 3 8 11 15 10 10 9 13 18 4 7 9 10 13 13 12 12
Wind_Direction
235 237 240 237 241 251 268 281 294 301 307 309 310 311 310 309 308 308 308 275 231 222 232 206 199 210 124 76 48 68 61 162 226 136 277 347 12 341 331 282 311 284 294 309 315
241 239 241 244 248 255 266 276 282 291 297 302 306 309 310 313 312 307 285 258 239 213 192 182 188 202 113 84 80 91 110 213 213 182 243 319 309 327 337 320 318 334 336 316 301
242 244 244 248 255 261 267 274 279 286 293 299 301 304 307 315 321 275 149 143 159 156 158 165 171 176 173 203 211 155 188 196 244 204 253 276 283 264 259 309 314 346 341 358 332
245 243 246 252 257 262 266 271 278 286 291 292 292 294 297 303 306 227 209 188 174 164 168 194 202 182 145 226 217 304 256 241 257 217 290 276 292 295 255 261 321 343 41 6 349
243 248 254 258 260 263 268 274 279 284 286 285 285 286 287 270 256 247 234 226 220 215 217 230 213 183 178 206 166 197 287 276 279 279 281 269 266 272 281 295 306 320 359 14 358
243 248 254 258 261 260 260 263 270 276 279 281 280 277 267 244 257 246 236 232 229 229 228 235 225 202 191 214 176 212 278 285 286 275 277 243 257 304 299 37 352 343 350 349 347
246 250 254 255 255 258 262 266 270 274 277 281 283 275 263 263 258 249 235 232 231 226 228 221 194 193 165 324 354 326 332 328 269 278 210 163 52 231 248 328 71 41 337 345 348
249 250 250 251 252 254 256 263 272 278 279 280 281 274 256 256 250 245 239 223 221 218 218 214 213 212 209 131 22 20 43 349 288 174 51 141 263 269 296 347 85 122 97 69 23
247 247 245 245 248 250 256 263 269 276 276 273 270 247 259 249 237 235 227 218 211 210 206 193 189 163 128 89 5 2 240 220 316 313 128 147 252 274 314 336 123 121 101 77 65
244 241 239 238 239 245 254 266 274 274 267 267 249 257 236 220 210 207 203 191 176 180 163 180 151 79 47 106 226 205 217 242 240 309 20 272 273 278 291 294 150 124 99 88 76
237 236 234 228 232 241 249 271 268 258 233 216 227 215 197 200 199 197 186 170 152 159 148 128 110 209 206 202 171 164 191 220 256 262 17 251 241 267 305 155 132 127 118 102 88
234 231 225 225 228 236 240 233 235 250 293 247 245 242 244 221 210 198 184 176 170 167 122 60 214 229 132 179 207 207 266 262 279 270 165 275 278 289 33 37 153 132 116 107 102
233 224 220 222 224 232 237 237 251 268 269 263 234 238 232 230 224 207 191 187 158 150 191 176 211 173 169 175 170 196 200 212 223 325 287 321 289 226 58 85 113 118 122 117 110
226 222 219 216 227 228 233 227 226 227 306 259 209 211 191 174 222 195 186 181 191 199 170 232 255 177 164 205 144 215 201 209 218 119 224 112 270 296 140 107 89 129 135 130 124
226 222 215 208 206 208 215 205 185 175 287 209 168 166 162 176 139 174 179 180 170 179 136 237 189 174 186 203 169 228 144 166 159 156 87 290 320 257 132 164 173 162 152 141 133
226 224 211 213 213 210 194 171 155 76 243 207 148 163 137 177 155 128 162 162 138 147 251 231 242 180 203 105 169 134 99 53 50 89 217 218 189 251 195 177 168 172 164 158 150
225 221 211 211 213 196 177 157 152 218 34 193 189 167 177 165 173 159 160 172 161 137 219 229 236 221 174 97 66 86 88 337 336 356 236 109 148 244 304 314 185 171 172 168 161
226 221 216 217 216 203 176 170 211 190 193 113 134 116 182 160 213 172 140 187 235 179 126 168 262 166 189 200 174 180 161 160 229 209 251 121 234 257 329 340 167 171 171 171 174
227 221 219 218 214 207 179 214 219 189 173 150 100 153 223 208 157 151 198 198 196 183 182 156 270 22 170 150 147 185 184 174 111 66 37 226 288 238 116 71 144 165 174 185 189
228 221 221 219 217 204 206 212 210 180 148 151 178 175 181 195 158 180 179 205 211 185 175 193 195 151 169 115 29 157 159 89 358 249 247 270 266 226 210 195 190 185 194 196 199
235 213 220 219 217 196 214 219 178 191 165 166 197 165 186 171 184 190 197 235 196 152 152 146 147 213 121 212 179 126 199 89 146 155 195 260 260 237 204 177 191 203 202 202 205
198 222 200 196 188 199 211 179 180 161 185 155 146 154 168 176 175 200 198 213 172 149 162 205 138 167 198 233 301 242 206 166 196 234 235 163 262 6 164 183 190 202 206 212 219
207 146 179 182 204 196 108 172 188 143 156 159 171 168 191 178 180 195 190 176 173 158 164 182 170 32 337 351 74 225 198 141 108 66 199 207 259 1 81 159 201 204 210 222 231
174 171 183 235 254 193 170 176 184 212 161 149 165 146 127 160 230 196 197 113 118 175 150 179 162 181 238 190 134 180 197 178 156 192 207 235 257 259 226 197 198 216 225 236 255
176 197 209 208 200 157 171 172 197 169 200 187 202 204 185 201 217 210 158 146 95 153 120 164 227 165 217 158 149 218 208 173 195 216 216 242 222 220 204 214 233 231 254 257 250
152 159 196 286 214 192 194 198 205 199 165 204 222 191 190 206 193 190 151 180 189 107 143 89 192 109 256 242 195 252 235 204 236 244 255 263 268 246 238 227 240 253 237 225 233
165 157 173 173 254 197 199 205 206 187 176 92 224 156 210 220 229 117 177 175 180 159 156 142 135 132 235 90 104 278 218 211 208 210 215 233 242 156 229 192 228 245 227 233 246